Location: Julian California
(33.0790°N, 116.6010°W)
Time: 21:41:11
(UTC-07:00)

ERS-1 Rocket - Pass Details

Date: 12 July 2018
Orbit: 753 x 758 km, 98.6° (Epoch: 17 July)

Event Time Altitude Azimuth Distance (km) Brightness Sun altitude
Exits shadow 22:06:50 51° 167° (SSE) 940 3.1 -22.4°
Maximum altitude 22:08:08 89° 262° (W) 761 2.9 -22.6°
Drops below altitude 10° 22:13:10 10° 347° (NNW) 2,286 6.3 -23.3°
Sets 22:15:29 0° 348° (NNW) 3,215 7.2 -23.6°
